Regional Weather Roundup
Issued by NWS

Home | Current Version | Previous Version | Graphics & Text | Print | Product List | Glossary On
Versions: 1 2 3 4 5 6 7 8 9 10 11 12 13 14 15 16 17 18 19 20 21 22 23 24 25 26 27 28 29 30 31 32 33 34 35 36 37 38 39 40 41 42 43 44 45 46 47 48 49 50
000
ASUS45 KPSR 021400
RWRAZ

ARIZONA HOURLY REGIONAL WEATHER ROUNDUP
NATIONAL WEATHER SERVICE PHOENIX AZ
700 AM MST SUN AUG 02 2015

NOTE: FAIR INDICATES FEW OR NO CLOUDS BELOW 12,000 FEET WITH NO
SIGNIFICANT WEATHER AND/OR OBSTRUCTIONS TO VISIBILITY.

AZZ001>003-036-021500-
NORTHWEST ARIZONA

CITY           SKY/WX    TMP DP  RH WIND       PRES   REMARKS
KINGMAN        SUNNY     73  55  53 CALM      30.02R
$$

AZZ004>008-015-016-018-021500-
NORTH CENTRAL ARIZONA

CITY           SKY/WX    TMP DP  RH WIND       PRES   REMARKS
GRAND CANYON   CLOUDY    63  57  81 CALM      30.23R
WILLIAMS       MOSUNNY   66  54  63 S6        30.30R
PRESCOTT       SUNNY     67  59  75 CALM      30.12R
FLAGSTAFF      NOT AVBL
PAYSON         SUNNY     68  55  64 NE3       30.16S
PAGE           LGT RAIN  71  61  70 S6        30.06R
$$

AZZ009>014-017-021500-
NORTHEAST ARIZONA

CITY           SKY/WX    TMP DP  RH WIND       PRES   REMARKS
WINSLOW        NOT AVBL
SAINT JOHNS    PTSUNNY   64  58  80 N7        30.17R
SHOW LOW       CLOUDY    59  52  77 S12       30.23S
$$

AZZ023-021500-
GREATER PHOENIX AREA

CITY           SKY/WX    TMP DP  RH WIND       PRES   REMARKS
PHOENIX        MOSUNNY   87  65  47 E8        29.83R
GLENDALE       MOSUNNY   84  68  58 CALM      29.85
DEER VALLEY    SUNNY     86  61  42 E3        29.85R
SCOTTSDALE     SUNNY     88  62  41 SE3       29.87R
MESA-FALCON    MOSUNNY   86  61  42 NE6       29.85R
MESA-GATEWAY   MOSUNNY   82  64  54 SE7       29.88R
CHANDLER       MOSUNNY   86  66  51 E5        29.85R
$$

AZZ027-028-021500-
SOUTHWEST MARICOPA COUNTY AND PINAL COUNTY

CITY           SKY/WX    TMP DP  RH WIND       PRES   REMARKS
CASA GRANDE    SUNNY     82  63  51 CALM      29.86R
GILA BEND      FAIR      86  59  39 SE6       29.81R
$$

AZZ503-504-507>509-021500-
SOUTHEAST ARIZONA

CITY           SKY/WX    TMP DP  RH WIND       PRES   REMARKS
TUCSON         SUNNY     77  65  66 SE7       29.98R
DAVIS-MONTHAN  SUNNY     77  62  60 SE7       29.98R
RYAN FIELD     SUNNY     79  66  65 E6        29.97R
NOGALES        SUNNY     71  63  75 CALM      30.08R
SIERRA VISTA   MOSUNNY   69  61  76 SE2       30.13R
SAFFORD        CLOUDY    77  63  61 W5        30.01R
$$

AZZ020-021-025-026-031-021500-
SOUTHWEST ARIZONA

CITY           SKY/WX    TMP DP  RH WIND       PRES   REMARKS
YUMA           SUNNY     90  59  35 N6        29.76R
$$

CAZ031-033-041-043-047-048-061-021500-
SOUTHERN CALIFORNIA

CITY           SKY/WX    TMP DP  RH WIND       PRES   REMARKS
DOWNTOWN L.A.  CLOUDY    68  63  84 CALM      29.90R
L.A. AIRPORT   CLOUDY    69  64  84 SW3       29.91R
SAN DIEGO      CLOUDY    69  63  81 NW3       29.91S
BURBANK        CLEAR     68  60  75 CALM      29.91R
ONTARIO        MOSUNNY   68  62  81 SW6       29.91R
RIVERSIDE      SUNNY     67  63  87 SW3       29.92R
PALM SPRINGS   SUNNY     84  57  39 NW13      29.80R
EL CENTRO NAS  SUNNY     83  48  29 SE5       29.76R
IMPERIAL       SUNNY     83  48  29 CALM      29.74R
BLYTHE         SUNNY     86  57  37 CALM      29.78R
$$

NVZ020-UTZ003-021500-
SOUTHERN NEVADA-UTAH

CITY           SKY/WX    TMP DP  RH WIND       PRES   REMARKS
LAS VEGAS      NOT AVBL
SALT LAKE CITY PTSUNNY   72  44  36 SE7       30.00S
$$

NMZ009-TXZ055-021500-
NEW MEXICO-WEST TEXAS

CITY           SKY/WX    TMP DP  RH WIND       PRES   REMARKS
ALBUQUERQUE    PTSUNNY   68  58  70 N5        30.19R
EL PASO        PTSUNNY   78  60  53 S5        30.06R
$$


........................KEY........................
SKY/WX - SKY CONDITION/WEATHER
TMP    - TEMPERATURE IN FAHRENHEIT
DP     - DEW POINT IN FAHRENHEIT
RH     - RELATIVE HUMIDITY IN PERCENT
WIND   - DIRECTION AND SPEED IN MILES PER HOUR (MPH)
VRB    - VARIABLE WIND DIRECTION
PRES   - MEAN SEA LEVEL PRESSURE IN INCHES OF MERCURY
         F - FALLING PRESSURE   R - RISING PRESSURE
         S - STEADY PRESSURE
VSB    - VISIBILITY IN MILES
HX     - HEAT INDEX IN FAHRENHEIT
WCI    - WIND CHILL INDEX IN FAHRENHEIT
TC     - TEMPERATURE IN CELSIUS WHICH IS ALSO KNOWN AS
         TEMPERATURE IN CENTIGRADE
AFB    - AIR FORCE BASE
         LUKE AFB IS LUKE AIR FORCE BASE
         DAVIS-MONTHAN IS DAVIS-MONTHAN AIR FORCE BASE
NAS    - NAVAL AIR STATION
         EL CENTRO NAS IS EL CENTRO NAVAL AIR STATION
N/A    - NOT AVAILABLE




USA.gov is the U.S. government's official web portal to all federal, state and local government web resources and services.